Waarnemingen

Advertentie
Mijn weer
Biscarosse, Frankrijk (7503): temperatuur & dauwpunt: 19.06.2017 05:00:00 - 25.06.2017 05:00:00 (CEST)Biscarosse, Frankrijk (7503): temperatuur 5cm: 19.06.2017 05:00:00 - 25.06.2017 05:00:00 (CEST)Biscarosse, Frankrijk (7503): temperatuur -20cm & temperatuur -100cm: 19.06.2017 05:00:00 - 25.06.2017 05:00:00 (CEST)Biscarosse, Frankrijk (7503): windsnelheid & windstoten: 19.06.2017 05:00:00 - 25.06.2017 05:00:00 (CEST)Biscarosse, Frankrijk (7503): windrichting: 19.06.2017 05:00:00 - 25.06.2017 05:00:00 (CEST)Biscarosse, Frankrijk (7503): luchtdruk: 19.06.2017 05:00:00 - 25.06.2017 05:00:00 (CEST)Biscarosse, Frankrijk (7503): zicht: 19.06.2017 05:00:00 - 25.06.2017 05:00:00 (CEST)Biscarosse, Frankrijk (7503): Zonneschijnduur: 19.06.2017 05:00:00 - 25.06.2017 05:00:00 (CEST)Biscarosse, Frankrijk (7503): neerslag: 19.06.2017 05:00:00 - 25.06.2017 05:00:00 (CEST)
Datum & Tijd tt [°C] td [°C] tt 5cm [°C] tt -20cm [°C] tt -100cm [°C] ff [km/u] ff [kn] fx [km/u] fx [kn] dd ppp [hPa] vv [km] sd [min] rr [mm]
25.06.2017 05:00:00 16,5 13,2 14,6 27,3 25,8 4 2 7 4 O 1020,7 20 0 0,0
25.06.2017 04:00:00 16,1 13,2 14,7 27,5 25,8 3 2 14 8 N 1021,0 20 0 0,0
25.06.2017 03:00:00 17,0 13,3 15,5 27,9 25,8 9 5 16 9 WNW 1021,3 20 0 0,0
25.06.2017 02:00:00 19,3 14,5 18,0 28,1 25,8 13 7 18 10 WNW 1021,6 20 0 0,0
25.06.2017 01:00:00 19,2 14,5 17,2 28,4 25,9 15 8 17 9 W 1022,2 20 0 0,0
25.06.2017 00:00:00 19,3 14,1 17,8 28,6 25,9 12 7 16 8 WNW 1022,2 20 0 0,0
24.06.2017 23:00:00 19,8 14,2 18,6 28,7 25,9 15 8 21 11 WNW 1022,1 20 0 0,0
24.06.2017 22:00:00 20,1 14,5 19,2 28,8 25,9 17 9 22 12 NW 1021,3 20 25 0,0
24.06.2017 21:00:00 21,4 14,3 22,0 28,7 26,0 15 8 21 11 WNW 1021,1 20 60 0,0
24.06.2017 20:00:00 22,2 15,1 24,0 28,4 26,0 17 9 21 11 WNW 1021,1 20 52 0,0
24.06.2017 19:00:00 22,3 15,2 24,0 28,0 26,0 12 7 18 10 W 1021,3 20 34 0,0
24.06.2017 18:00:00 22,7 15,0 26,7 27,5 26,0 13 7 18 10 W 1021,5 20 43 0,0
24.06.2017 17:00:00 23,0 15,8 24,9 27,1 26,1 13 7 17 9 WZW 1021,7 20 17 0,0
24.06.2017 16:00:00 23,3 16,1 24,9 26,6 26,1 13 7 16 8 WZW 1021,7 20 16 0,0
24.06.2017 15:00:00 22,3 16,1 27,1 26,3 26,1 13 7 16 9 ZW 1022,0 20 14 0,0
24.06.2017 14:00:00 22,7 15,5 24,5 26,1 26,2 12 6 15 8 ZZW 1022,2 20 20 0,0
24.06.2017 13:00:00 21,2 16,2 23,0 26,1 26,2 12 6 17 9 ZZW 1022,5 20 0 0,0
24.06.2017 12:00:00 20,0 15,2 21,3 26,0 26,2 14 8 18 10 Z 1022,5 20 0 0,0
24.06.2017 11:00:00 20,1 14,7 21,6 26,1 26,2 6 3 12 6 Z 1022,5 20 0 0,0
24.06.2017 10:00:00 19,6 15,5 19,9 26,2 26,3 6 3 10 5 ZO 1022,7 20 0 0,0
24.06.2017 09:00:00 18,8 15,5 18,4 26,5 26,3 5 3 12 6 ZO 1022,7 20 0 0,0
24.06.2017 08:00:00 18,1 14,4 17,5 26,7 26,3 6 3 11 6 OZO 1022,8 20 0 0,0
24.06.2017 07:00:00 17,3 13,4 16,6 26,9 26,3 8 4 12 6 O 1022,6 20 0 0,0
24.06.2017 06:00:00 16,5 13,4 15,4 27,2 26,3 8 4 13 7 O 1022,9 20 0 0,0
24.06.2017 05:00:00 16,3 13,6 15,2 27,5 26,3 9 5 12 7 O 1023,1 20 0 0,0
24.06.2017 04:00:00 17,2 14,3 16,0 27,8 26,4 6 4 8 4 O 1023,6 20 0 0,0
24.06.2017 03:00:00 16,8 13,7 15,7 28,1 26,4 6 3 8 4 O 1024,0 20 0 0,0
24.06.2017 02:00:00 17,1 14,2 15,9 28,4 26,4 6 3 7 4 O 1024,4 20 0 0,0
24.06.2017 01:00:00 17,6 14,1 16,8 28,6 26,5 5 3 7 4 NO 1024,6 20 0 0,0
24.06.2017 00:00:00 18,3 14,4 17,8 28,8 26,5 5 3 18 10 NO 1024,9 20 0 0,0
23.06.2017 23:00:00 19,4 15,1 18,7 28,9 26,5 6 3 14 8 N 1024,7 20 0 0,0
23.06.2017 22:00:00 20,0 15,0 19,5 28,9 26,5 9 5 18 10 N 1023,9 20 0 0,0
23.06.2017 21:00:00 20,9 15,4 21,4 28,8 26,5 13 7 20 11 NNW 1023,9 20 36 0,0
23.06.2017 20:00:00 22,0 15,6 23,8 28,7 26,6 15 8 19 10 WNW 1023,5 20 57 0,0
23.06.2017 19:00:00 22,5 15,3 27,7 28,4 26,6 11 6 16 9 WNW 1023,3 20 60 0,0
23.06.2017 18:00:00 23,1 15,7 28,3 28,2 26,6 8 4 10 5 WNW 1023,4 20 60 0,0
23.06.2017 17:00:00 22,9 15,2 24,6 28,1 26,6 9 5 18 10 NW 1023,4 20 15 0,0
23.06.2017 16:00:00 21,3 16,3 24,7 28,0 26,7 16 8 19 11 NNW 1023,7 20 0 0,0
23.06.2017 15:00:00 21,4 16,4 25,2 27,9 26,7 15 8 19 11 NNW 1023,5 20 0 0,0
23.06.2017 14:00:00 21,3 16,7 22,5 28,0 26,7 14 8 22 12 NNW 1023,5 20 0 0,0
23.06.2017 13:00:00 20,1 16,9 21,5 28,0 26,7 18 10 24 13 NW 1023,7 20 0 0,0
23.06.2017 12:00:00 19,3 18,0 19,3 28,2 26,7 6 3 18 10 NNW 1023,7 14 0 0,2
23.06.2017 11:00:00 19,7 18,4 19,6 28,4 26,7 7 4 16 8 NNW 1023,4 14 0 0,0
23.06.2017 10:00:00 19,2 18,2 19,4 28,6 26,7 13 7 19 11 NNW 1023,3 4,0 0 0,0
23.06.2017 09:00:00 19,2 18,2 19,2 28,9 26,8 13 7 22 12 N 1022,8 3,1 0 0,6
23.06.2017 08:00:00 19,2 18,2 19,1 29,2 26,8 12 6 30 16 N 1022,3 2,9 0 0,4
23.06.2017 07:00:00 19,4 18,4 18,9 29,4 26,7 25 14 32 17 W 1021,8 9 0 0,0
23.06.2017 06:00:00 19,5 18,5 19,1 29,7 26,7 26 14 29 16 W 1021,7 6 0 0,6
23.06.2017 05:00:00 19,6 18,6 19,2 30,0 26,8 18 10 29 16 WNW 1021,5 3,4 0 0,0
23.06.2017 04:00:00 19,9 18,7 19,5 30,3 26,7 24 13 30 16 WNW 1021,4 13 0 0,0
23.06.2017 03:00:00 19,9 18,9 19,4 30,6 26,8 20 11 31 17 WZW 1021,3 9 0 0,0
23.06.2017 02:00:00 20,4 19,2 19,8 30,9 26,8 24 13 31 17 W 1021,1 6 0 0,2
23.06.2017 01:00:00 20,3 19,1 19,9 31,3 26,8 27 14 32 18 WZW 1021,0 4,6 0 0,0
23.06.2017 00:00:00 20,9 19,0 20,4 31,5 26,8 27 15 33 18 WZW 1020,5 12 0 0,0
22.06.2017 23:00:00 20,8 19,3 20,2 31,7 26,7 26 14 32 18 WZW 1020,2 9 0 0,0
22.06.2017 22:00:00 20,8 19,3 20,7 32,0 26,8 29 16 36 20 ZW 1019,6 7 0 0,0
22.06.2017 21:00:00 21,5 19,4 21,8 32,1 26,8 27 15 32 17 WZW 1019,4 10 0 0,0
22.06.2017 20:00:00 21,8 19,7 22,3 32,2 26,8 27 15 34 18 WZW 1018,6 10 0 0,0
22.06.2017 19:00:00 22,3 19,8 23,6 32,2 26,8 24 13 31 17 ZW 1018,3 12 0 0,0
22.06.2017 18:00:00 23,3 20,1 - - - 24 13 29 16 ZZW 1018,4 9 - 0,0
22.06.2017 17:00:00 22,8 19,8 24,5 32,0 26,7 22 12 27 15 ZW 1018,6 13 0 0,0
22.06.2017 16:00:00 23,1 18,8 26,0 31,7 26,8 22 12 29 16 ZW 1018,8 20 0 0,0
22.06.2017 15:00:00 23,5 19,2 26,6 31,6 26,7 21 12 26 14 ZW 1018,5 17 0 0,0
22.06.2017 14:00:00 24,2 18,6 27,1 31,4 26,7 17 9 24 13 ZW 1018,5 20 0 0,0
22.06.2017 13:00:00 23,6 18,7 28,0 31,2 26,7 19 10 28 15 ZW 1018,4 20 0 0,0
22.06.2017 12:00:00 24,1 19,4 27,6 31,2 26,7 22 12 27 15 ZZW 1018,1 18 0 0,0
22.06.2017 11:00:00 23,4 19,8 26,8 31,2 26,7 21 11 27 15 ZW 1017,8 18 5 0,0
22.06.2017 10:00:00 24,7 20,8 30,1 31,4 26,7 16 9 21 11 ZZW 1017,2 20 60 0,0
22.06.2017 09:00:00 23,7 18,1 28,0 31,6 26,6 14 8 17 9 ZZW 1016,7 18 60 0,0
22.06.2017 08:00:00 23,4 17,2 20,9 32,0 26,6 5 3 13 7 NNO 1015,9 20 25 0,0
22.06.2017 07:00:00 21,6 17,4 19,8 32,4 26,6 5 3 9 5 N 1015,9 20 2 0,0
22.06.2017 06:00:00 21,5 15,8 20,4 32,8 26,6 7 4 23 12 Z 1015,4 20 0 0,0
22.06.2017 05:00:00 23,3 15,6 22,1 33,2 26,5 15 8 23 13 O 1014,6 20 0 0,0
22.06.2017 04:00:00 23,9 15,9 22,4 33,6 26,5 10 5 16 9 ONO 1014,6 20 0 0,0
22.06.2017 03:00:00 23,8 16,6 22,6 34,0 26,5 7 4 17 9 ONO 1014,9 20 0 0,0
22.06.2017 02:00:00 24,3 15,2 22,1 34,4 26,5 4 2 10 6 NNO 1015,2 20 0 0,0
22.06.2017 01:00:00 23,9 14,9 22,3 34,8 26,4 5 3 8 5 ONO 1015,3 20 0 0,0
22.06.2017 00:00:00 25,3 15,0 22,2 35,2 26,4 5 3 11 6 N 1015,2 20 0 0,0
21.06.2017 23:00:00 24,6 14,1 22,0 35,5 26,4 7 4 14 8 N 1015,1 20 0 0,0
21.06.2017 22:00:00 24,7 16,1 23,7 35,6 26,4 16 8 27 15 N 1014,7 20 26 0,0
21.06.2017 21:00:00 28,7 16,3 28,6 35,5 26,4 15 8 22 12 N 1014,4 20 60 0,0
21.06.2017 20:00:00 31,1 14,7 34,7 35,3 26,4 16 8 31 17 N 1014,1 20 60 0,0
21.06.2017 19:00:00 30,0 15,3 34,9 34,9 26,4 20 11 29 16 N 1014,1 20 60 0,0
21.06.2017 18:00:00 30,6 14,7 36,9 34,3 26,4 18 10 28 15 NNW 1013,9 20 60 0,0
21.06.2017 17:00:00 32,1 14,7 39,0 33,6 26,4 20 11 26 14 N 1013,9 20 60 0,0
21.06.2017 16:00:00 31,0 14,6 39,0 32,8 26,4 13 7 16 9 NNW 1014,3 20 60 0,0
21.06.2017 15:00:00 30,2 15,9 38,9 32,1 26,4 11 6 14 8 NNW 1014,6 20 60 0,0
21.06.2017 14:00:00 30,2 16,2 38,6 31,5 26,3 10 5 15 8 NW 1015,0 20 60 0,0
21.06.2017 13:00:00 28,8 16,7 36,2 31,0 26,3 10 6 14 8 NNW 1015,3 20 60 0,0
21.06.2017 12:00:00 27,1 17,3 34,2 30,7 26,3 9 5 13 7 NNW 1015,6 20 60 0,0
21.06.2017 11:00:00 26,4 18,3 33,3 30,7 26,3 6 3 9 5 NW 1015,5 20 60 0,0
21.06.2017 10:00:00 25,2 17,7 25,9 30,8 26,3 5 3 8 4 NNW 1015,4 20 60 0,0
21.06.2017 09:00:00 23,1 20,6 - - - 2 1 4 2 NW 1015,2 19 - 0,0
21.06.2017 08:00:00 21,3 20,5 19,2 31,5 26,2 5 3 7 4 ZO 1015,0 7 15 0,0
21.06.2017 07:00:00 19,3 17,6 18,4 31,9 26,2 5 3 8 4 ZZO 1014,9 0,3 0 0,0
21.06.2017 06:00:00 20,2 18,5 18,6 32,3 26,1 2 1 4 2 ZZO 1014,7 14 0 0,0
21.06.2017 05:00:00 19,9 17,9 18,8 32,8 26,1 3 2 8 4 OZO 1014,6 14 0 0,0
21.06.2017 04:00:00 19,9 17,3 18,8 33,2 26,1 6 3 7 4 OZO 1014,9 13 0 0,0
21.06.2017 03:00:00 20,2 15,8 18,8 33,6 26,0 5 3 12 6 ZW 1015,4 17 0 0,0
21.06.2017 02:00:00 20,4 17,2 19,5 34,1 26,0 0 0 4 2 N 1015,3 11 0 0,0
21.06.2017 01:00:00 21,4 17,2 20,2 34,4 26,0 0 0 5 3 N 1015,7 17 0 0,0
21.06.2017 00:00:00 22,9 17,1 21,8 34,9 26,0 4 2 9 5 N 1015,5 20 0 0,0
20.06.2017 23:00:00 23,4 18,1 22,6 35,1 26,0 8 4 14 8 N 1015,6 20 0 0,0
20.06.2017 22:00:00 24,2 18,8 23,6 35,3 26,0 9 5 14 8 N 1015,2 17 27 0,0
20.06.2017 21:00:00 27,2 17,4 27,8 35,3 25,9 7 4 11 6 N 1015,2 20 58 0,0
20.06.2017 20:00:00 28,3 17,2 30,4 35,1 25,9 5 3 8 4 NNW 1014,8 20 60 0,0
20.06.2017 19:00:00 27,3 18,0 30,5 34,8 25,9 5 3 11 6 NW 1014,9 20 32 0,0
20.06.2017 18:00:00 28,8 17,3 35,2 34,3 25,9 9 5 13 7 NNW 1015,0 20 60 0,0
20.06.2017 17:00:00 29,8 16,9 36,4 33,6 25,9 10 6 16 9 NNW 1015,3 20 60 0,0
20.06.2017 16:00:00 28,4 19,1 36,3 32,9 25,9 12 6 15 8 NNW 1015,6 20 60 0,0
20.06.2017 15:00:00 30,4 18,5 38,5 32,1 25,8 8 5 11 6 NW 1016,0 20 60 0,0
20.06.2017 14:00:00 29,2 18,0 37,5 31,5 25,8 9 5 16 8 NNW 1016,2 20 60 0,0
20.06.2017 13:00:00 29,1 17,9 38,2 31,0 25,8 10 5 13 7 NNW 1016,4 20 60 0,0
20.06.2017 12:00:00 31,0 18,7 33,3 30,8 25,8 8 4 16 8 WNW 1016,2 20 45 0,0
20.06.2017 11:00:00 29,0 17,2 32,5 30,7 25,8 9 5 17 9 ZO 1016,0 20 15 0,0
20.06.2017 10:00:00 28,7 17,2 30,3 30,8 25,7 6 4 11 6 OZO 1016,0 20 60 0,0
20.06.2017 09:00:00 25,1 18,5 25,5 31,1 25,7 9 5 15 8 OZO 1016,0 20 35 0,0
20.06.2017 08:00:00 22,0 18,8 20,3 31,5 25,7 8 4 12 7 OZO 1015,8 20 28 0,0
20.06.2017 07:00:00 19,9 17,7 18,8 32,0 25,7 8 4 10 6 O 1015,6 20 15 0,0
20.06.2017 06:00:00 19,8 17,9 18,4 32,4 25,6 7 4 16 8 ONO 1015,5 18 0 0,0
20.06.2017 05:00:00 20,2 18,7 19,2 32,9 25,6 9 5 14 7 ZO 1015,9 20 0 0,0
20.06.2017 04:00:00 19,8 18,1 19,4 33,4 25,5 7 4 10 6 O 1015,3 20 0 0,0
20.06.2017 03:00:00 20,4 18,9 19,6 33,8 25,5 4 2 8 5 O 1015,5 20 0 0,0
20.06.2017 02:00:00 20,4 19,1 19,8 34,3 25,5 6 3 12 7 Z 1015,7 14 0 0,0
20.06.2017 01:00:00 20,7 19,0 20,0 34,7 25,4 10 5 23 13 ZZW 1016,5 16 0 0,0
20.06.2017 00:00:00 21,3 19,4 21,0 35,1 25,4 16 8 32 17 ZZW 1016,5 20 0 0,0
19.06.2017 23:00:00 22,5 19,3 22,2 35,4 25,4 28 15 43 23 ZW 1016,4 20 0 0,0
19.06.2017 22:00:00 29,0 13,2 27,1 35,5 25,3 5 3 13 7 NNW 1014,4 20 4 0,0
19.06.2017 21:00:00 33,0 12,6 33,0 35,4 25,3 11 6 19 10 N 1013,6 20 60 0,0
19.06.2017 20:00:00 34,5 12,8 37,9 35,1 25,3 13 7 17 9 N 1012,9 20 60 0,0
19.06.2017 19:00:00 35,6 12,5 39,5 34,6 25,3 14 7 19 11 NNW 1012,8 20 60 0,0
19.06.2017 18:00:00 35,2 12,2 41,4 33,9 25,3 13 7 18 10 NNW 1012,9 20 60 0,0
19.06.2017 17:00:00 35,0 13,2 42,1 33,2 25,2 14 7 17 9 NNW 1013,2 20 60 0,0
19.06.2017 16:00:00 33,7 14,2 41,4 32,4 25,3 13 7 19 10 NNW 1013,5 20 60 0,0
19.06.2017 15:00:00 33,0 18,8 41,3 31,5 25,2 12 6 16 8 NNW 1013,5 20 60 0,0
19.06.2017 14:00:00 33,0 19,1 41,5 30,7 25,2 12 6 15 8 WNW 1013,5 20 60 0,0
19.06.2017 13:00:00 32,8 19,7 39,4 30,1 25,2 8 5 15 8 NW 1013,7 20 60 0,0
19.06.2017 12:00:00 32,8 19,7 37,0 29,7 25,2 10 5 20 11 W 1013,8 25 60 0,0
19.06.2017 11:00:00 29,6 19,3 33,8 29,6 25,1 12 6 30 16 O 1013,5 25 60 0,0
19.06.2017 10:00:00 27,2 18,5 28,5 29,7 25,1 19 10 35 19 O 1013,4 20 60 0,0
19.06.2017 09:00:00 24,1 17,6 25,1 30,0 25,1 20 11 40 21 O 1013,5 25 60 0,0
19.06.2017 08:00:00 21,9 16,6 20,5 30,3 25,0 19 10 45 24 O 1013,3 25 29 0,0
19.06.2017 07:00:00 20,5 15,7 20,3 30,7 25,0 22 12 38 21 O 1013,2 20 0 0,0
19.06.2017 06:00:00 20,8 14,9 20,4 31,2 25,0 21 11 36 19 O 1012,9 20 0 0,0
19.06.2017 05:00:00 22,1 14,5 - - - 21 11 34 18 O 1013,0 20 - -

tt = temperatuur
td = dauwpunt
tt 5cm = temperatuur 5cm
tt -20cm = temperatuur -20cm
tt -100cm = temperatuur -100cm
ff = windsnelheid
fx = windstoten
dd = windrichting
ppp = luchtdruk
vv = zicht
sd = Zonneschijnduur
rr = neerslag

Weerstations in de omgeving